AW706 Weather Reports


time (UTC)temp
C
wind
direction
speed
KPH
gust
KPH
rain 1hr
cm
rain 24hr
cm
rain mn
cm
humidity
%
barometer
mb
20260506033506 15 161 8.0 17.7 0.00 0.00 0.00 80 1007.8
20260506033003 16 153 8.0 17.7 0.00 0.00 0.00 80 1007.9
20260506032501 16 197 8.0 17.7 0.00 0.00 0.00 80 1007.8
20260506032003 16 167 6.4 16.1 0.00 0.00 0.00 79 1007.8
20260506031502 16 178 8.0 16.1 0.00 0.00 0.00 79 1007.9
20260506031220 16 165 8.0 17.7 0.00 0.00 0.00 79 1007.8
20260506030501 16 217 9.7 19.3 0.00 0.00 0.00 79 1007.8
20260506030003 16 174 8.0 19.3 0.00 0.00 0.00 79 1007.8
20260506025502 16 180 8.0 16.1 0.00 0.00 0.00 79 1007.9
20260506025003 16 171 6.4 16.1 0.00 0.00 0.00 79 1007.9
20260506024501 16 187 6.4 19.3 0.00 0.00 0.00 79 1007.9
20260506024003 16 195 8.0 19.3 0.00 0.00 0.00 78 1007.9
20260506023502 16 230 6.4 16.1 0.00 0.00 0.00 77 1007.8
20260506023004 16 285 6.4 14.5 0.00 0.00 0.00 77 1007.9
20260506022503 16 191 8.0 19.3 0.00 0.00 0.00 77 1007.9
20260506022002 16 272 8.0 19.3 0.00 0.00 0.00 76 1007.8
20260506021503 16 164 6.4 16.1 0.00 0.00 0.00 76 1007.8
20260506021000 16 156 6.4 14.5 0.00 0.00 0.00 76 1008.0
20260506020456 16 171 6.4 14.5 0.00 0.00 0.00 76 1007.9
20260506015956 16 169 6.4 14.5 0.00 0.00 0.00 75 1007.9
20260506015457 16 158 8.0 14.5 0.00 0.00 0.00 75 1007.8
20260506015221 16 172 8.0 16.1 0.00 0.00 0.00 75 1007.8
20260506014457 16 172 8.0 19.3 0.00 0.00 0.00 75 1007.7
20260506013956 16 163 6.4 19.3 0.00 0.00 0.00 75 1007.6
20260506013457 16 303 8.0 20.9 0.00 0.00 0.00 74 1007.6
20260506012957 16 170 9.7 20.9 0.00 0.00 0.00 74 1007.5
20260506012457 16 165 9.7 19.3 0.00 0.00 0.00 73 1007.5
20260506011957 17 178 9.7 20.9 0.00 0.00 0.00 73 1007.4
20260506011458 17 262 8.0 20.9 0.00 0.00 0.00 72 1007.4
20260506010957 17 171 8.0 14.5 0.00 0.00 0.00 72 1007.3
20260506010457 17 181 8.0 16.1 0.00 0.00 0.00 72 1007.3
20260506005958 17 153 8.0 16.1 0.00 0.00 0.00 72 1007.3
20260506005458 17 165 8.0 16.1 0.00 0.00 0.00 72 1007.1
20260506005222 17 165 6.4 16.1 0.00 0.00 0.00 71 1007.1
20260506004455 17 181 6.4 19.3 0.00 0.00 0.00 70 1007.0
20260506003954 17 181 6.4 19.3 0.00 0.00 0.00 69 1006.9
20260506003455 17 271 6.4 14.5 0.00 0.00 0.00 69 1006.9
20260506002958 17 174 6.4 14.5 0.00 0.00 0.00 68 1006.9
20260506002954 18 146 6.4 14.5 0.00 0.00 0.00 68 1006.9
20260506001955 18 169 6.4 14.5 0.00 0.00 0.00 68 1006.8
20260506001455 18 158 6.4 14.5 0.00 0.00 0.00 68 1006.8
20260506000955 18 174 6.4 19.3 0.00 0.00 0.00 68 1006.7
20260506000455 18 166 6.4 19.3 0.00 0.00 0.00 68 1006.6
20260505235955 18 189 6.4 12.9 0.00 0.00 0.00 67 1006.5
20260505235452 18 161 6.4 12.9 0.00 0.00 0.00 67 1006.6
20260505234952 18 175 4.8 14.5 0.00 0.00 0.00 67 1006.6
20260505234710 18 196 6.4 14.5 0.00 0.00 0.00 67 1006.4
20260505233950 18 181 8.0 16.1 0.00 0.00 0.00 67 1006.3
20260505233449 18 174 8.0 16.1 0.00 0.00 0.00 66 1006.2
20260505232949 18 179 6.4 16.1 0.00 0.00 0.00 66 1006.2
20260505232450 18 172 6.4 16.1 0.00 0.00 0.00 66 1006.1
20260505231950 18 328 4.8 11.3 0.00 0.00 0.00 66 1006.0
20260505231446 18 164 6.4 12.9 0.00 0.00 0.00 66 1006.0
20260505230947 18 169 8.0 17.7 0.00 0.00 0.00 66 1005.9
20260505230447 18 144 8.0 17.7 0.00 0.00 0.00 66 1005.8
20260505225947 18 173 6.4 17.7 0.00 0.00 0.00 65 1005.8
20260505225447 18 171 6.4 12.9 0.00 0.00 0.00 65 1005.7
20260505224947 18 188 6.4 14.5 0.00 0.00 0.00 64 1005.8
20260505224447 18 170 6.4 24.1 0.00 0.00 0.00 63 1005.9
20260505224211 19 194 9.7 29.0 0.00 0.00 0.00 63 1005.9
20260505223448 19 182 9.7 29.0 0.00 0.00 0.00 62 1005.7
20260505222946 19 176 9.7 20.9 0.00 0.00 0.00 61 1005.7
20260505222442 20 182 9.7 20.9 0.00 0.00 0.00 61 1005.6
20260505221442 20 177 9.7 20.9 0.00 0.00 0.00 60 1005.5
20260505220941 20 199 9.7 20.9 0.00 0.00 0.00 60 1005.5
20260505220442 20 183 9.7 20.9 0.00 0.00 0.00 60 1005.6
20260505215943 20 297 9.7 19.3 0.00 0.00 0.00 60 1005.5
20260505215442 20 101 9.7 19.3 0.00 0.00 0.00 59 1005.6
20260505214942 20 271 9.7 20.9 0.00 0.00 0.00 59 1005.7
20260505214442 20 184 9.7 20.9 0.00 0.00 0.00 60 1005.6
20260505213943 20 166 8.0 19.3 0.00 0.00 0.00 60 1005.6
20260505213442 20 180 8.0 16.1 0.00 0.00 0.00 60 1005.5
20260505212942 20 331 8.0 19.3 0.00 0.00 0.00 60 1005.5
20260505212708 20 181 9.7 20.9 0.00 0.00 0.00 61 1005.4
20260505211941 20 118 9.7 20.9 0.00 0.00 0.00 61 1005.3
20260505211439 20 175 9.7 17.7 0.00 0.00 0.00 62 1005.3
20260505210940 20 170 9.7 19.3 0.00 0.00 0.00 62 1005.3
20260505210440 20 184 8.0 19.3 0.00 0.00 0.00 63 1005.3
20260505205939 20 171 8.0 16.1 0.00 0.00 0.00 63 1005.2
20260505205440 20 178 8.0 17.7 0.00 0.00 0.00 63 1005.4
20260505205203 20 191 8.0 17.7 0.00 0.00 0.00 63 1005.4
20260505204439 20 260 8.0 16.1 0.00 0.00 0.00 62 1005.5
20260505203940 20 277 6.4 16.1 0.00 0.00 0.00 62 1005.4
20260505203440 20 172 8.0 16.1 0.00 0.00 0.00 63 1005.4
20260505202940 20 181 9.7 19.3 0.00 0.00 0.00 63 1005.4
20260505202658 20 172 9.7 19.3 0.00 0.00 0.00 63 1005.6
20260505201940 20 182 9.7 19.3 0.00 0.00 0.00 62 1005.6
20260505201440 20 189 8.0 16.1 0.00 0.00 0.00 61 1005.6
20260505200940 21 188 8.0 16.1 0.00 0.00 0.00 60 1005.7
20260505200438 21 163 6.4 16.1 0.00 0.00 0.00 61 1005.6
20260505195938 21 325 6.4 16.1 0.00 0.00 0.00 62 1005.7
20260505195437 21 186 6.4 17.7 0.00 0.00 0.00 61 1005.7
20260505194938 21 199 6.4 17.7 0.00 0.00 0.00 60 1005.8
20260505194438 21 337 4.8 14.5 0.00 0.00 0.00 61 1006.0
20260505193937 21 176 6.4 14.5 0.00 0.00 0.00 59 1005.9
20260505193438 21 155 6.4 14.5 0.00 0.00 0.00 61 1005.9
20260505192939 21 131 6.4 14.5 0.00 0.00 0.00 63 1006.1
20260505192439 20 177 6.4 14.5 0.00 0.00 0.00 62 1006.2
20260505191938 20 164 6.4 14.5 0.00 0.00 0.00 63 1006.3
20260505191438 20 185 6.4 12.9 0.00 0.00 0.00 62 1006.5
20260505190939 20 175 6.4 12.9 0.00 0.00 0.00 63 1006.4
20260505190439 20 170 8.0 17.7 0.00 0.00 0.00 63 1006.5
20260505190158 20 161 8.0 24.1 0.00 0.00 0.00 62 1006.6
20260505185436 20 210 9.7 24.1 0.00 0.00 0.00 63 1006.7
20260505185153 20 221 8.0 17.7 0.00 0.00 0.00 63 1006.7
20260505184433 21 192 6.4 17.7 0.00 0.00 0.00 63 1006.9
20260505184418 21 252 6.4 16.1 0.00 0.00 0.00 61 1007.0
20260505183433 21 166 6.4 16.1 0.00 0.00 0.00 62 1007.0
20260505182933 21 203 6.4 14.5 0.00 0.00 0.00 64 1007.1
20260505182433 21 90 6.4 12.9 0.00 0.00 0.00 64 1007.0
20260505181933 21 284 6.4 12.9 0.00 0.00 0.00 63 1007.1
20260505181433 21 94 4.8 11.3 0.00 0.00 0.00 63 1007.0
20260505180933 21 123 4.8 11.3 0.00 0.00 0.00 64 1007.1
20260505180433 21 303 6.4 12.9 0.00 0.00 0.00 63 1007.1
20260505180200 20 173 4.8 12.9 0.00 0.00 0.00 64 1007.1
20260505175433 20 59 4.8 11.3 0.00 0.00 0.00 64 1007.2
20260505174930 20 333 4.8 9.7 0.00 0.00 0.00 64 1007.3
20260505174430 20 172 6.4 12.9 0.00 0.00 0.00 65 1007.3
20260505173930 20 182 4.8 12.9 0.00 0.00 0.00 65 1007.3
20260505173654 20 152 4.8 11.3 0.00 0.00 0.00 64 1007.3
20260505172928 20 185 6.4 12.9 0.00 0.00 0.00 64 1007.4
20260505172427 20 179 8.0 12.9 0.00 0.00 0.00 66 1007.4
20260505172150 20 176 6.4 12.9 0.00 0.00 0.00 65 1007.4
20260505171428 20 282 8.0 14.5 0.00 0.00 0.00 64 1007.4
20260505170928 21 182 6.4 14.5 0.00 0.00 0.00 63 1007.4
20260505170428 21 179 4.8 12.9 0.00 0.00 0.00 62 1007.5
20260505165928 21 98 4.8 12.9 0.00 0.00 0.00 61 1007.5
20260505165428 21 163 4.8 12.9 0.00 0.00 0.00 62 1007.5
20260505164928 21 150 6.4 14.5 0.00 0.00 0.00 60 1007.5
20260505164428 21 180 6.4 14.5 0.00 0.00 0.00 62 1007.5
20260505163928 21 181 4.8 11.3 0.00 0.00 0.00 61 1007.6
20260505163425 21 243 4.8 9.7 0.00 0.00 0.00 61 1007.7
20260505162926 21 322 4.8 12.9 0.00 0.00 0.00 61 1007.8
20260505162423 21 324 6.4 14.5 0.00 0.00 0.00 61 1007.9
20260505161922 21 178 6.4 14.5 0.00 0.00 0.00 61 1007.9
20260505161422 21 172 6.4 12.9 0.00 0.00 0.00 60 1007.9
20260505160923 21 140 6.4 12.9 0.00 0.00 0.00 62 1007.9
20260505160423 21 188 6.4 12.9 0.00 0.00 0.00 62 1007.9
20260505153146 21 307 4.8 9.7 0.00 0.00 0.00 62 1008.1
20260505152420 21 151 4.8 11.3 0.00 0.00 0.00 62 1008.2
20260505151918 20 134 4.8 12.9 0.00 0.00 0.00 62 1008.3
20260505151417 20 187 4.8 12.9 0.00 0.00 0.00 64 1008.4
20260505150914 21 324 4.8 9.7 0.00 0.00 0.00 63 1008.4
20260505150415 21 186 4.8 9.7 0.00 0.00 0.00 61 1008.5
20260505140413 20 278 6.4 14.5 0.00 0.00 0.00 61 1008.1
20260505124907 17 180 4.8 11.3 0.00 0.00 0.00 70 1007.9
20260505124404 17 164 4.8 11.3 0.00 0.00 0.00 70 1007.9
20260505124121 17 152 3.2 9.7 0.00 0.00 0.00 71 1007.7
20260505123405 17 189 3.2 8.0 0.00 0.00 0.00 72 1007.7
20260505123126 17 294 3.2 8.0 0.00 0.00 0.00 73 1007.7
20260505122402 17 175 3.2 8.0 0.00 0.00 0.00 74 1007.6
20260505121902 16 179 3.2 9.7 0.00 0.00 0.00 75 1007.6
20260505121402 16 250 3.2 9.7 0.00 0.00 0.00 76 1007.7
20260505120902 16 154 3.2 9.7 0.00 0.00 0.00 77 1007.8
20260505120401 15 178 3.2 8.0 0.00 0.00 0.00 79 1007.8
20260505115902 15 188 3.2 8.0 0.00 0.00 0.00 82 1007.9
20260505115402 14 207 3.2 8.0 0.00 0.00 0.00 83 1008.0
20260505114902 14 201 3.2 6.4 0.00 0.00 0.00 85 1007.9
20260505114402 13 207 3.2 6.4 0.00 0.00 0.00 87 1007.8
20260505114128 13 123 3.2 6.4 0.00 0.00 0.00 88 1007.9
20260505113623 13 135 3.2 6.4 0.00 0.00 0.00 89 1008.0
20260505113343 13 175 3.2 4.8 0.00 0.00 0.00 90 1008.1
20260505112400 13 176 3.2 4.8 0.00 0.00 0.00 91 1007.9
20260505111859 12 168 3.2 4.8 0.00 0.00 0.00 92 1007.9
20260505111400 12 168 3.2 4.8 0.00 0.00 0.00 93 1007.9
20260505110900 12 166 3.2 4.8 0.00 0.00 0.00 93 1007.9
20260505110400 12 180 1.6 4.8 0.00 0.00 0.00 94 1007.9
20260505101854 11 175 3.2 4.8 0.00 0.00 0.00 95 1007.3
20260505101355 11 200 1.6 4.8 0.00 0.00 0.00 96 1007.1
20260505101114 11 155 3.2 4.8 0.00 0.00 0.00 96 1007.1
20260505100614 11 150 3.2 4.8 0.00 0.00 0.00 96 1006.9
20260505095855 11 171 3.2 4.8 0.00 0.00 0.00 96 1006.8
20260505095355 11 157 3.2 4.8 0.00 0.00 0.00 96 1006.7
20260505094855 11 162 3.2 4.8 0.00 0.00 0.00 96 1006.8
20260505094355 11 154 3.2 4.8 0.00 0.00 0.00 95 1006.8
20260505094112 11 179 3.2 4.8 0.00 0.00 0.00 95 1006.7
20260505093355 11 171 3.2 3.2 0.00 0.00 0.00 95 1006.8
20260505092856 11 170 3.2 3.2 0.00 0.00 0.00 95 1006.8
20260505092355 11 159 1.6 4.8 0.00 0.00 0.00 95 1006.8
20260505091856 11 165 3.2 4.8 0.00 0.00 0.00 95 1006.9
20260505091355 11 153 3.2 4.8 0.00 0.00 0.00 95 1006.9
20260505090857 11 170 3.2 4.8 0.00 0.00 0.00 95 1006.9
20260505090355 11 140 3.2 4.8 0.00 0.00 0.00 95 1007.0
20260505085854 11 161 3.2 3.2 0.00 0.00 0.00 95 1006.9
20260505085351 11 158 3.2 4.8 0.00 0.00 0.00 94 1006.9
20260505084851 11 148 3.2 4.8 0.00 0.00 0.00 94 1006.9
20260505084351 11 173 1.6 4.8 0.00 0.00 0.00 94 1006.9
20260505083849 11 0 3.2 4.8 0.00 0.00 0.00 94 1006.9
20260505083349 11 174 3.2 4.8 0.00 0.00 0.00 94 1006.9
20260505082850 11 147 3.2 4.8 0.00 0.00 0.00 94 1006.9
20260505082350 11 185 3.2 4.8 0.00 0.00 0.00 94 1006.9
20260505081850 11 152 3.2 6.4 0.00 0.00 0.00 94 1006.9
20260505081350 11 141 3.2 6.4 0.00 0.00 0.00 94 1006.9
20260505080850 11 137 3.2 6.4 0.00 0.00 0.00 94 1006.9
20260505080351 11 159 3.2 6.4 0.00 0.00 0.00 93 1006.9
20260505080215 11 151 3.2 4.8 0.00 0.00 0.00 93 1006.9
20260505074848 11 158 3.2 4.8 0.00 0.00 0.00 93 1006.9
20260505074347 11 151 3.2 4.8 0.00 0.00 0.00 93 1006.9
20260505073847 11 137 3.2 4.8 0.00 0.00 0.00 93 1006.9
20260505073347 11 119 3.2 4.8 0.00 0.00 0.00 93 1006.9
20260505072844 11 144 3.2 6.4 0.00 0.00 0.00 93 1006.9
20260505072345 11 146 3.2 6.4 0.00 0.00 0.00 93 1006.8
20260505072107 11 139 3.2 4.8 0.00 0.00 0.00 93 1006.8
20260505071345 11 147 3.2 6.4 0.00 0.00 0.00 93 1006.9
20260505070845 11 142 3.2 6.4 0.00 0.00 0.00 93 1006.9
20260505070609 11 141 3.2 6.4 0.00 0.00 0.00 93 1006.8
20260505065845 11 141 1.6 4.8 0.00 0.00 0.00 93 1006.9
20260505065345 11 141 1.6 6.4 0.00 0.00 0.00 92 1006.9
20260505064842 11 138 3.2 6.4 0.00 0.00 0.00 92 1006.9
20260505064437 11 138 1.6 6.4 0.00 0.00 0.00 92 1006.9
20260505063344 12 169 3.2 6.4 0.00 0.00 0.00 92 1007.0
20260505062843 12 137 3.2 8.0 0.00 0.00 0.00 92 1007.0
20260505062342 12 151 3.2 8.0 0.00 0.00 0.00 92 1007.1
20260505061843 12 153 3.2 8.0 0.00 0.00 0.00 91 1007.1
20260505061343 12 164 3.2 8.0 0.00 0.00 0.00 91 1007.2
20260505061110 12 153 3.2 6.4 0.00 0.00 0.00 91 1007.2
20260505060342 12 0 3.2 6.4 0.00 0.00 0.00 91 1007.2
20260505055843 12 149 3.2 6.4 0.00 0.00 0.00 91 1007.2
20260505055343 12 128 3.2 6.4 0.00 0.00 0.00 90 1007.2
20260505055102 12 151 3.2 6.4 0.00 0.00 0.00 90 1007.3
20260505054608 12 165 3.2 6.4 0.00 0.00 0.00 90 1007.4
20260505053843 12 164 3.2 6.4 0.00 0.00 0.00 89 1007.4
20260505053340 12 121 3.2 8.0 0.00 0.00 0.00 89 1007.4
20260505052841 12 162 3.2 8.0 0.00 0.00 0.00 89 1007.5
20260505052603 12 179 3.2 8.0 0.00 0.00 0.00 88 1007.4
20260505051837 12 172 3.2 8.0 0.00 0.00 0.00 88 1007.5
20260505051334 12 175 3.2 6.4 0.00 0.00 0.00 87 1007.5
20260505051101 12 179 3.2 6.4 0.00 0.00 0.00 87 1007.5
20260505050824 12 168 3.2 6.4 0.00 0.00 0.00 87 1007.5
20260505041327 13 166 3.2 6.4 0.00 0.00 0.00 82 1007.9
20260505040827 13 154 3.2 11.3 0.00 0.00 0.00 81 1007.8
20260505040326 13 0 3.2 11.3 0.00 0.00 0.00 80 1007.9
20260505035828 13 156 4.8 12.9 0.00 0.00 0.00 79 1007.8
20260505035325 13 139 4.8 12.9 0.00 0.00 0.00 78 1007.8
20260505034824 13 186 4.8 12.9 0.00 0.00 0.00 78 1007.8
20260505034322 13 278 4.8 12.9 0.00 0.00 0.00 77 1007.7
20260505034308 13 169 4.8 11.3 0.00 0.00 0.00 77 1007.7